Regional Weather Roundup
Issued by NWS

Home | Current Version | Previous Version | Text Only | Print | Product List | Glossary On
Versions: 1 2 3 4 5 6 7 8 9 10 11 12 13 14 15 16 17 18 19 20 21 22 23 24 25 26 27 28 29 30 31 32 33 34 35 36 37 38 39 40 41 42 43 44 45 46 47 48 49 50
000
ASHW40 PHFO 310130
RWRHI

WEATHER ROUNDUP FOR HAWAII
NATIONAL WEATHER SERVICE HONOLULU HI
300 PM HST SUN AUG 30 2015

THIS IS AN AUTOMATED REPORT THAT HAS NOT BEEN QUALITY CONTROLLED.

NOTE..."FAIR" INDICATES FEW OR NO CLOUDS BELOW 12,000 FEET WITH NO
SIGNIFICANT WEATHER AND/OR OBSTRUCTIONS TO VISIBILITY.

* - THESE SITES REPORT LIMITED FIELDS

HIZ001>004-310200-
KAUAI-NIIHAU-

CITY           SKY/WX    TMP DP  RH WIND       PRES   REMARKS
LIHUE APT      MOSUNNY   85  77  77 NE13      29.90F HX  95
PORT ALLEN*    NOT AVBL
POIPU*           N/A     86 N/A N/A NE9G18      N/A
PRINCEVILLE*     N/A     84 N/A N/A MISG        N/A
KOKOLE POINT*  NOT AVBL
MOLOAA DAIRY*    N/A     84  73  70 E8G15       N/A  HX  91
WAIMEA HTS*    NOT AVBL
PUU OPAE*      NOT AVBL
PUU LUA*       NOT AVBL
MAKAHA RIDGE*    N/A     82  72  69 W2          N/A
$$

HIZ005>011-310200-
OAHU-

CITY           SKY/WX    TMP DP  RH WIND       PRES   REMARKS
HONOLULU       PTSUNNY   89  74  60 NE15      29.85F HX  98
KALAELOA       PTSUNNY   89  71  55 NE7       29.86F HX  95
KANEOHE MCB    MOSUNNY   86  76  71 NE10      29.85F HX  96
WHEELER FIELD  FAIR      84  73  69 E13       29.87F HX  91
BELLOWS*         N/A    N/A N/A N/A NE12        N/A
KAHUKU*          N/A    N/A N/A N/A NE7G15      N/A
WHEELER*       NOT AVBL
WAIANAE HARBOR NOT AVBL
DILLINGHAM*      N/A     91  75  59 MISG        N/A  HX 102
KAHUKU TRN*      N/A     82  73  74 E9G18       N/A
KAWAILOA*        N/A     81  73  78 NE7G14      N/A
KII*             N/A     84  77  79 E12G17      N/A  HX  94
MAKUA RANGE*     N/A     88  72  58 NE12G18     N/A  HX  94
OAHU FOREST NW NOT AVBL
SCHOFIELD BRK*   N/A     82  72  69 MISG        N/A
SCHOFIELD S*   NOT AVBL
WAIANAE VLY*   NOT AVBL
KUAOKALA*      NOT AVBL
HONOULIUULI*   NOT AVBL
MOKUOLOE IS*   NOT AVBL
PALEHUA*       NOT AVBL
WAIAWA PHB*    NOT AVBL
$$

HIZ012>013-310200-
MOLOKAI-

CITY           SKY/WX    TMP DP  RH WIND       PRES   REMARKS
MOLOKAI AIRPT  LGT RAIN  82  76  81 N10G18    29.87F
KALAUPAPA      NOT AVBL
MAKAPULAPAI*   NOT AVBL
MOLOKAI 1*     NOT AVBL
PUU ALII*        N/A     70  69  95 E2          N/A
$$

HIZ016-310200-
KAHOOLAWE-

CITY           SKY/WX    TMP DP  RH WIND       PRES   REMARKS
KAHOOLAWE*     NOT AVBL
HAKIOAWA*        N/A     82  77  83 MISG      30.28  HX  90
HONOKANAIA*      N/A     87  73  63 NE8G21    29.79S HX  95
KANELOA*         N/A     81  75  83 E10G21    29.94S
KEALIALALO*      N/A     84  73  70 NE12G20   29.84F HX  91
LUA MAKIKA*    NOT AVBL
$$

HIZ014>015-310200-
LANAI-

CITY           SKY/WX    TMP DP  RH WIND       PRES   REMARKS
LANAI CITY     CLOUDY    81  74  79 NE18      29.90F
LANAI 1*       NOT AVBL
$$

HIZ017>028-310200-
MAUI-

CITY           SKY/WX    TMP DP  RH WIND       PRES   REMARKS
KAHULUI        CLOUDY    87  75  67 NE20      29.85F HX  96
KAPALUA-W MAUI PTSUNNY   86  75  70 NE17G24   29.86  HX  95
HANA AIRPORT   SUNNY     82  77  83 N5        29.88F HX  91
HANA*            N/A     84 N/A N/A NW3         N/A
HALEAKALA SUMM   N/A     50  50 100 E13G26      N/A
MAALAEA BAY*   NOT AVBL
HALEAKALA*     NOT AVBL
KAUPO GAP*     NOT AVBL
KULA 1*          N/A     63  60  89 SE5         N/A
$$

HIZ023>026-310200-
BIG ISLAND OF HAWAII COAST AND LOWER SLOPES-

CITY           SKY/WX    TMP DP  RH WIND       PRES   REMARKS
KAILUA KONA    CLOUDY    89  74  60 S13       29.80F HX  98
HILO           MOSUNNY   87  77  72 N10       29.84S HX  99
HONOKAA*       NOT AVBL
KAWAIHAE MWT*    N/A     90 N/A N/A W3          N/A
KAWAIHAE*        N/A     88 N/A N/A SW3         N/A
SOUTH POINT*     N/A     81 N/A N/A S1          N/A
UPOLU AIRPORT*   N/A    N/A N/A N/A NE13        N/A
KAMUELA*       NOT AVBL
HAKALAU*         N/A     71  63  76 NE5G13      N/A
KALOKO-HONOKO*   N/A     88  73  62 S7G14     29.79F HX  96
PALI 2*          N/A     75  72  88 S8          N/A
KEALAKOMO*     NOT AVBL
KAUPULEHU*     NOT AVBL
KAPAPALA*        N/A     82  74  78 S5G12       N/A
LOWER KAHUKU*    N/A     75 N/A N/A S1          N/A
PUHE CS*         N/A     90  72  55 W3          N/A  HX  96
PUHO CS*         N/A     89  72  56 S3G9        N/A  HX  96
PTA KEAMUKU*     N/A     79  68  69 CALM        N/A
WAIKOLOA*      NOT AVBL
$$

HIZ027>028-310200-
BIG ISLAND OF HAWAII INTERIOR AND SUMMMITS-

CITY           SKY/WX    TMP DP  RH WIND       PRES   REMARKS
BRADSHAW FIELD LGT RAIN  68  63  83 SW5       30.22S
MK VISITOR CEN   N/A     55  52  88 S9          N/A
MAUNA KEA*       N/A     46  37  71 SE7         N/A
MAUNA LOA*       N/A     54  45  71 MISG        N/A
MAUNA LOA 1*   NOT AVBL
PTA KIPUKA*      N/A     64  63  94 SW6G13      N/A
PTA RANGE 17*    N/A     66  64  94 W10G17      N/A
PTA WEST*        N/A     70  66  88 NW14G20     N/A
NENE CABIN*      N/A     64  57  77 SE3G9       N/A
AHUMOA*        NOT AVBL
PTA PORTABLE*  NOT AVBL
PUU MALI*        N/A     64  63  94 NE20G26     N/A
$$

HIC003-310200-
NORTHWEST ISLANDS-

CITY           SKY/WX    TMP DP  RH WIND       PRES   REMARKS
MIDWAY ISLAND  SUNNY     88  79  74 S7        29.89F HX 102
MIDWAY NOS*    NOT AVBL
FRENCH FRIGATE NOT AVBL
$$

PHZ110>124-180-310200-
BUOY REPORTS

STATION/POSITION TIME  TEMP    WIND        PRES    WAVE   SWELL
                       AIR SEA DIR/SP/G            HT/PER HT/DIR
                 (UTC) (F)     (DEG/KT/KT) (MB)    (FT/S) (FT/D)
BUOY 51001       0056   82 83  110/ 17/ 21 1013.0
BUOY 51101       0100   82 83  120/ 12/ 14 1012.7F   7/11   7/ 50
BUOY 51100       NOT AVBL
BUOY 51002       0100   83 84   30/ 10/ 12 1009.9F   6/13   7/280
BUOY 51003       0100   82 85   60/  8/ 12 1010.8F   6/11   7/130
BUOY 51004       NOT AVBL
BARBERS PT BUOY  NOT AVBL
WAIMEA BAY BUOY  0100      82                N/A     5/ 8   3/360
KAILUA BAY BUOY  0100      83                N/A     6/ 8   2/ 60
LANAI BUOY       NOT AVBL
BARBERS PT 2     0100      84                N/A     4/12   3/210
PAUWELA MAUI     0100      82                N/A     6/ 8   3/ 10
HILO             NOT AVBL
KANEOHE BAY BUOY 0100      82                N/A     6/ 8   2/ 30
HANALEI KAUAI    0100      83                N/A     5/ 8   2/310
KAHULUI HARBOR   NOT AVBL
HONOLULU HARBOR  NOT AVBL
KILO NALU        NOT AVBL
HILO HARBOR      NOT AVBL
MOKUOLOE         NOT AVBL
NAWILIWILI       NOT AVBL
WHOTS BUOY       NOT AVBL
BUOY 51028       NOT AVBL
$$

......................KEY........................................
  SKY/WX - SKY CONDITIONS/PRESENT WEATHER
  TMP    - TEMPERATURE IN FAHRENHEIT
  DWPT   - DEWPOINT IN FAHRENHEIT
  RH     - RELATIVE HUMIDITY IN PERCENT
  WIND   - DIRECTION AND SPEED /MPH FOR ISLANDS...KTS FOR BUOYS/
  PRES   - MEAN SEA LEVEL PRESSURE IN INCHES OF HG
  VSB    - VISIBILITY IN MILES
  HX     - HEAT INDEX
  WCI    - WIND CHILL INDEX
  VRB    - VARIABLE WIND DIRECTION
  N/A    - NOT AVAILABLE


USA.gov is the U.S. government's official web portal to all federal, state and local government web resources and services.